Theta_e
340 340 341 342 345 345 343 342 342 342 342 341 338 334 333 333 331 329 327 329 327 326 327 326 325 325 325 324 323 323 322 320 316 320 322 324 327 328 329 327 326 325 323
342 343 343 342 342 340 338 337 339 339 339 336 335 332 334 334 333 328 328 328 327 325 325 325 325 329 323 324 321 322 322 322 319 316 322 320 323 328 328 328 327 327 326
344 342 341 342 340 337 334 334 335 333 332 333 331 330 332 333 328 328 329 327 327 326 325 324 323 324 323 325 324 321 322 326 320 318 318 320 323 326 323 323 323 322 324
340 339 338 338 338 335 334 332 333 331 330 330 329 331 331 330 328 329 329 328 327 325 325 323 321 322 321 324 325 322 324 322 319 317 318 317 320 321 321 318 317 320 319
339 338 337 337 335 334 332 331 330 330 330 329 328 327 329 330 330 331 330 327 323 322 322 321 321 322 319 319 325 323 323 320 318 316 317 317 317 318 316 317 316 316 317
336 336 337 335 333 331 330 329 329 328 328 326 326 327 324 324 309 315 327 325 324 322 320 319 321 320 318 315 316 317 321 320 316 316 315 317 316 316 317 316 316 315 311
335 336 335 332 331 329 330 330 328 327 329 328 326 324 321 315 304 308 317 326 324 322 320 320 322 324 321 321 312 315 315 315 316 317 317 317 316 317 317 316 317 314 312
334 333 331 331 330 329 329 327 330 325 328 328 328 323 318 313 303 305 309 325 324 324 322 322 321 322 321 322 320 322 322 319 318 319 318 319 319 319 319 318 315 314 316
328 328 330 331 329 327 327 328 327 325 324 324 326 322 317 312 304 305 314 324 323 323 323 322 322 323 310 306 322 317 314 312 306 307 307 304 303 306 314 316 314 314 311
326 327 331 331 329 326 326 327 326 326 326 327 326 324 315 313 304 304 316 324 320 320 318 318 306 314 301 308 321 316 314 313 313 313 311 306 310 308 309 318 317 313 311
327 327 331 331 330 330 330 328 326 326 325 324 324 323 320 314 309 303 305 321 319 319 317 318 312 299 300 304 309 319 314 315 310 316 315 315 317 317 318 318 317 316 313
326 330 331 330 332 332 329 326 326 325 323 322 322 322 321 316 306 301 304 312 315 320 318 317 309 297 299 300 311 300 303 310 316 315 314 314 314 315 317 318 317 317 319
329 328 328 328 330 328 327 326 326 324 324 321 321 322 321 318 313 300 300 306 308 314 313 308 297 297 298 302 300 301 306 317 315 314 313 314 315 316 318 317 318 318 319
327 327 328 328 327 329 328 326 326 323 324 322 321 322 322 317 315 311 309 308 304 308 303 306 305 306 305 307 308 312 319 316 315 315 314 315 317 317 315 316 314 315 316
327 327 327 327 326 315 310 310 320 311 316 323 321 323 323 321 320 313 313 317 314 309 312 315 317 317 317 317 320 320 319 318 316 316 316 315 315 316 314 316 315 315 314
327 326 326 327 323 319 315 312 296 295 295 303 308 315 313 307 302 301 300 300 299 300 315 315 314 316 317 317 318 317 317 315 317 318 317 316 312 311 313 316 317 313 314
326 326 325 326 324 321 318 316 312 306 296 294 295 300 304 299 297 297 298 297 296 304 315 314 314 315 317 318 318 318 318 317 318 318 317 317 316 313 310 317 317 316 316
327 314 327 327 327 325 323 319 317 316 313 309 298 298 294 295 295 295 296 303 313 312 316 315 315 317 317 318 317 318 319 318 318 318 317 318 317 315 315 316 317 317 317
326 325 326 327 326 323 326 322 321 320 314 310 308 302 294 293 294 295 298 318 316 314 316 317 317 318 318 318 318 319 318 319 319 319 318 316 316 317 317 315 315 303 307
322 312 318 327 324 324 325 321 320 320 315 313 313 310 307 308 313 314 316 319 318 318 318 317 318 318 317 319 319 319 319 316 316 317 317 316 317 317 316 316 316 316 314
320 317 308 326 324 325 323 321 321 320 318 318 314 312 300 317 316 316 317 319 320 320 322 319 319 319 319 320 320 318 317 318 317 320 321 321 320 319 320 320 318 318 317
321 322 324 324 324 325 324 324 323 321 320 319 315 308 292 317 317 319 320 320 323 322 323 323 320 319 319 319 319 320 321 319 321 323 324 323 322 321 320 319 319 319 322
320 323 321 321 323 313 321 325 323 322 321 319 316 314 308 314 318 319 322 321 323 322 316 316 322 318 315 310 308 310 314 314 317 321 323 323 323 321 323 321 321 320 317
320 320 322 321 323 324 326 325 326 312 321 319 317 316 315 317 320 317 309 310 307 306 304 301 301 301 300 300 300 299 296 297 304 311 318 324 324 317 323 324 323 324 324
322 319 320 319 322 324 322 325 325 324 322 320 317 317 318 316 313 308 306 302 301 299 298 297 297 295 294 293 293 293 289 287 296 291 319 323 322 321 323 322 322 322 320
318 318 317 319 321 320 319 319 320 319 317 313 309 307 308 308 306 304 303 299 296 295 294 293 292 292 292 292 290 287 287 288 295 292 306 306 307 305 309 309 309 309 311
Wind_Speed
9 8 8 7 7 10 8 9 10 10 11 10 9 8 8 8 7 6 5 6 7 6 4 5 5 3 2 2 1 2 2 3 4 3 3 4 4 5 4 5 5 6 5
10 8 8 8 10 10 10 9 10 12 11 9 9 7 8 7 7 7 6 6 6 6 6 5 4 3 3 3 2 3 3 3 4 5 3 3 4 5 7 8 6 5 5
10 9 9 11 11 12 10 9 11 9 8 8 8 8 8 8 7 6 6 6 6 6 5 4 2 3 3 2 2 3 3 3 4 5 3 2 2 3 7 7 6 6 4
9 10 12 11 11 11 8 7 8 8 8 8 7 7 7 8 8 7 6 6 6 6 6 6 4 5 2 1 2 2 3 6 6 6 5 2 2 3 5 5 5 4 5
14 12 12 10 9 10 8 7 8 7 7 7 7 6 7 7 5 7 6 8 7 6 5 5 4 5 7 3 1 2 3 6 6 6 5 3 2 4 6 2 5 5 4
15 14 12 11 10 8 7 7 7 7 7 7 7 7 8 5 6 12 9 8 7 7 6 4 3 3 3 3 2 4 6 9 6 5 3 6 3 6 6 7 8 6 3
15 14 12 11 10 8 7 7 7 7 6 10 8 9 7 6 6 8 9 6 7 6 6 5 3 3 4 3 2 4 9 10 7 7 9 7 6 5 8 9 7 4 3
16 15 13 11 9 7 8 7 7 6 7 8 8 8 7 4 5 6 5 6 6 5 5 5 4 4 4 5 3 6 8 5 5 5 7 7 7 9 10 8 10 8 7
16 14 12 13 10 8 7 7 6 7 5 5 7 8 8 5 6 6 3 6 6 6 4 3 1 4 5 7 6 9 8 6 10 11 12 13 12 12 11 10 9 10 4
13 13 15 14 12 8 8 8 4 6 5 5 6 6 8 7 6 6 5 6 6 4 4 3 6 6 5 10 10 10 9 5 9 8 7 9 10 9 6 6 11 10 6
12 11 15 13 12 9 8 7 6 6 6 6 7 6 6 7 4 4 4 5 5 4 3 3 3 8 5 8 10 9 9 9 9 8 6 6 6 6 4 5 3 10 9
10 15 15 14 10 8 11 5 7 7 7 6 6 5 4 5 7 5 7 9 7 5 4 3 4 8 5 9 9 14 16 11 7 6 6 5 6 5 4 4 5 5 2
16 16 13 12 13 11 9 7 6 6 6 5 5 6 5 4 4 6 7 8 7 4 3 6 11 9 8 8 17 16 10 8 7 6 6 4 5 5 5 5 3 2 3
16 14 12 13 10 9 6 5 6 5 6 6 5 6 6 4 4 4 4 7 10 8 7 5 6 7 7 9 8 6 6 7 7 6 5 4 5 5 4 3 5 3 2
15 12 11 10 10 8 7 4 4 3 2 6 5 6 8 7 6 9 8 5 5 6 7 3 5 4 6 7 4 7 7 6 6 6 6 6 5 4 2 3 2 2 2
14 10 9 9 8 8 8 7 13 9 5 10 12 8 2 6 15 13 11 15 14 11 4 4 4 5 7 5 6 6 6 6 6 6 6 6 4 3 3 3 2 3 3
14 11 9 9 9 9 8 8 8 7 16 16 11 9 8 11 13 13 15 14 11 7 4 4 5 5 5 4 5 6 6 5 7 7 6 5 6 5 4 4 5 4 4
13 15 10 8 9 9 9 8 8 7 6 4 11 7 11 11 12 13 14 9 3 3 5 5 5 5 5 5 5 5 6 6 5 6 5 4 3 6 5 4 4 4 4
12 9 9 9 8 9 9 9 9 8 7 6 5 7 7 9 9 9 4 3 4 4 5 4 5 6 6 5 4 4 4 5 5 4 5 5 4 3 5 4 4 5 5
9 14 10 11 8 8 9 8 8 9 9 7 6 5 4 4 4 4 2 3 3 3 5 6 5 5 5 5 4 3 4 3 3 4 5 5 5 5 4 6 5 5 5
6 6 12 11 10 8 9 8 9 9 9 8 7 9 9 7 7 6 4 3 4 4 6 6 6 6 5 5 5 4 4 4 5 5 6 7 6 7 7 5 5 5 5
7 8 10 10 8 9 9 7 10 9 9 9 8 8 10 7 7 6 5 5 5 5 5 7 7 6 5 5 5 6 5 5 5 5 6 7 6 5 6 5 5 5 8
7 9 7 5 7 9 7 9 8 8 9 9 10 10 7 4 5 5 3 1 4 7 7 6 4 5 5 6 6 5 2 1 1 3 6 7 8 7 6 6 7 6 5
7 7 6 5 8 9 8 8 8 7 10 10 7 5 4 1 5 11 9 9 11 10 10 10 10 11 8 8 7 6 5 4 4 3 5 5 5 5 7 8 8 8 8
3 4 6 5 7 9 8 10 9 9 12 12 10 9 9 9 10 11 11 10 11 12 14 11 9 13 15 15 13 12 9 5 5 5 5 8 9 9 5 4 2 1 4
11 11 8 8 10 11 11 13 14 14 13 11 11 10 10 11 11 11 11 12 12 12 13 10 13 17 16 14 14 11 10 10 12 12 10 9 10 9 8 10 12 8 8
Wind_Direction
142 144 148 172 165 160 138 145 152 150 140 146 146 145 142 137 146 153 169 169 153 166 168 181 203 197 190 194 185 162 161 130 118 39 68 20 78 129 117 101 114 112 129
145 148 157 139 135 121 113 124 129 133 139 140 138 139 133 146 156 151 153 168 159 169 177 182 212 193 214 211 176 183 161 131 117 123 62 42 65 92 114 105 104 114 119
144 135 126 134 122 112 117 124 127 128 136 127 133 148 153 152 146 162 164 169 159 170 176 154 115 155 181 169 160 181 161 127 120 127 112 60 75 91 84 70 80 72 69
124 131 125 129 115 120 132 122 123 126 130 132 150 153 144 158 164 167 163 142 134 116 112 116 108 95 110 149 1 132 134 122 116 119 107 111 83 75 87 111 89 75 91
129 132 125 119 122 126 125 128 123 124 129 129 142 155 160 162 160 162 145 142 130 123 116 123 129 124 105 89 157 72 130 121 121 123 131 134 124 135 128 117 104 105 66
133 125 129 127 118 120 121 125 126 135 131 131 103 122 110 98 136 150 138 136 139 138 152 137 143 138 130 121 167 167 125 145 135 139 139 156 133 124 133 137 134 134 106
133 129 129 124 128 134 131 127 132 129 127 122 122 109 102 105 95 105 130 141 144 156 159 155 164 175 184 171 71 162 152 153 172 149 155 158 151 147 136 140 134 115 110
130 132 138 132 129 124 130 139 115 121 119 126 122 117 117 116 101 102 94 145 148 142 140 152 175 181 199 166 142 114 103 92 151 139 144 145 137 144 148 142 125 104 98
135 146 137 134 134 133 135 121 120 111 110 114 125 125 122 124 119 106 91 104 96 98 103 90 146 217 181 168 131 99 85 61 44 84 101 110 119 126 130 127 131 132 119
143 147 145 144 142 143 134 121 118 124 130 125 121 124 131 126 121 87 98 114 118 127 110 101 31 106 109 126 132 120 112 114 108 98 97 100 112 111 119 156 147 147 134
148 146 147 144 144 140 121 125 125 130 121 120 121 129 126 130 128 93 108 124 143 139 147 140 95 103 99 110 127 131 129 122 107 111 110 110 118 115 109 111 142 152 157
123 125 135 135 132 118 125 120 124 125 120 127 124 107 98 103 118 72 119 137 157 142 169 144 123 126 113 126 117 124 125 119 121 117 122 126 128 125 125 123 131 149 139
118 123 122 128 123 126 126 124 122 122 129 136 128 123 126 117 95 80 66 107 114 93 98 120 131 130 110 109 130 134 127 121 125 127 132 125 131 134 124 116 108 97 49
118 119 121 119 117 125 117 121 139 144 149 153 151 154 141 131 131 117 112 99 98 92 108 110 131 110 90 115 128 128 129 133 137 137 139 128 126 144 148 140 157 160 156
120 124 122 118 110 94 71 38 98 75 186 163 168 156 151 157 176 161 155 145 121 129 126 119 119 112 128 139 145 125 129 132 137 136 141 148 155 143 142 150 125 128 188
128 129 131 123 123 116 115 97 50 43 15 107 136 136 88 144 151 147 132 126 135 151 113 130 120 127 135 133 125 124 133 139 144 142 148 157 160 150 155 158 137 149 182
136 141 139 137 136 131 129 126 114 53 65 49 51 92 117 137 124 128 130 134 146 136 124 129 136 134 139 137 137 146 155 155 152 154 159 166 156 172 174 161 171 188 213
144 143 149 149 148 143 146 138 134 130 115 70 34 63 86 110 120 128 134 123 116 101 135 144 147 145 143 146 140 144 141 147 157 158 162 171 159 164 184 188 191 191 212
145 148 157 153 150 146 148 149 146 139 117 119 110 63 65 91 105 120 88 114 137 137 136 143 149 152 155 151 151 149 150 157 163 150 154 168 181 176 180 199 223 230 233
140 146 145 153 146 152 149 148 141 137 136 142 131 136 149 135 135 153 177 160 163 149 156 152 156 153 154 169 161 153 152 161 173 170 176 183 188 194 209 203 211 223 229
123 132 133 145 156 162 152 152 140 143 145 149 144 160 161 148 159 174 190 187 176 185 160 165 167 175 173 162 168 172 176 185 186 207 184 187 181 196 222 214 218 230 239
124 142 145 156 162 166 156 139 148 151 152 142 143 164 174 164 182 186 191 201 208 195 174 166 168 173 165 171 181 198 199 202 200 199 185 187 189 199 207 216 221 231 242
137 153 161 153 165 147 142 144 144 148 156 144 150 163 183 205 194 180 172 346 61 53 54 50 62 72 63 45 38 27 44 18 359 232 198 196 199 205 210 219 233 241 239
150 159 159 147 161 156 155 146 154 144 145 131 119 124 145 198 39 88 82 72 73 73 70 66 62 61 58 53 38 35 25 359 327 320 313 215 218 213 215 224 233 250 261
172 135 124 126 151 167 155 143 137 121 107 107 103 101 99 96 88 86 85 79 78 75 69 64 64 63 59 58 49 33 1 333 357 327 5 36 54 38 56 73 58 11 44
67 62 65 66 80 88 94 98 97 98 98 96 94 84 80 86 82 85 85 86 85 80 80 71 67 66 60 50 45 25 10 28 45 41 55 57 56 39 41 41 35 34 30